User: anonymous   Login
Location: Unspecified
(0.0000°N, 0.0000°E)
Time: 21:31:22
(UTC+00:00)
Language:

ATHENOXAT 1 - Orbit

View from above orbital plane
View from above orbital plane
View from above satellite
View from above satellite

Ground track
Ground track

The orbit data is extracted from the following two-line orbital elements,

1 41168U 15077C   18344.15766204  .00001520  00000-0  45597-4 0  9993
2 41168  14.9757 172.0250 0011872 327.1584 344.0258 15.13185254165060
Epoch (UTC): 10 December 2018 03:47:02
Eccentricity: 0.0011872
inclination: 14.9757°
perigee height: 518 km
apogee height: 534 km
right ascension of ascending node: 172.0250°
argument of perigee: 327.1584°
revolutions per day: 15.13185254
mean anomaly at epoch: 344.0258°
orbit number at epoch: 16506

The dashed part of the orbit path shows where the satellite is in the earth's shadow,  

DLR